Weather in Peterborough

Canada     44°18′53″N   78°19′37″W
temp.,
°C
wind,
m/s
gust,
m/s
humid.,
%
clouds,
%
prec.,
mm/h
press.,
hPa
HPBL,
m
23 october, sat
sat2323:00+3nnw2469100 0.0 1017106
02:00+2nnw117392 0.0 101618
05:00+3nne1267100 0.0 101695
08:00+3nne1166100 0.0 101685
11:00+6ene1055100 0.0 1016528
14:00+9w2248100 0.0 10151340
17:00+9w224991 0.0 1015888
20:00+4sw226920 0.0 101714
24 october, sun
sun2423:00+3sw228254 0.0 101710
02:00+5nnw117462 0.0 101828
05:00+2nnw11835 0.0 101910
08:00+2sse01875 0.0 101910
11:00+9sw3561100 0.0 1019737
14:00+12sw454649 0.0 10171773
17:00+11ssw4660100 0.0 1017532
20:00+7sse3775100 0.0 1018191
25 october, mon
mon2523:00+8ese2590100 0.1 1017190
02:00+7ene3791100 0.1 1017292
05:00+7ene4990100 0.0 1016519
08:00+6ene51287100 0.5 1016714
11:00+6ene71394100 3.4 1015755
14:00+5ene71493100 7.7 1014763
17:00+4ne81793100 3.9 1013785
20:00+4ne81793100 5.8 1012789
26 october, tue
tue2623:00+3ne71493100 1.2 1012754
02:00+3nne71394100 3.0 1012660
05:00+3nne61293100 0.0 1011648
08:00+3nne51093100 0.0 1012589
11:00+3n51092100 0.0 1012542
14:00+4n5993100 0.0 1011495
17:00+4n51093100 0.0 1012542
20:00+5nne51194100 0.4 1012572
27 october, wed
wed2723:00+5nne51194100 0.1 1012539
02:00+5n51193100 0.2 1012498
05:00+5nne51193100 0.1 1013569
08:00+5nne41093100 0.1 1013544
11:00+6ne4991100 0.0 1014480
14:00+9ene478999 0.0 1014474
17:00+9ene379297 0.0 1014395
20:00+7ene4997100 0.0 1015301